星链-34412(STARLINK-34412)

导读

STARLINK-34412是美国于2025年10月22日发射的Starlink星链卫星,星链是SpaceX打造的全球卫星互联网项目,旨在为全球偏远地区、高需求区域提供低成本、低延迟的高速宽带服务。该卫星是星链组网建设中的一员,助力星链完成近地轨道卫星互联网星座的部署拓展。

基本信息
目录编号:
66132
目录名称:
STARLINK-34412
国际标识:
2025-237U
轨道中心:
EARTH
卫星名称:
星链-34412
卫星全名:
星链-34412(STARLINK-34412)
卫星状态:
在轨 (已飞行317 天)
发射日期:
2025-10-22 UTC
国别 :
美国 (US)
星等 :
--
轨道信息
数据来源 国际轨道数据
星历时间: 2026-09-04T02:42:56+0800
11小时前
查看轨道信息
半长轴: 6840.856km
偏心率: 0.000127
轨道倾角: 53.159°
近地点辐角 89.649°
升交点赤经 289.810°
平近点角 270.466°
近地点: 461.85km
远地点: 463.588km
周期: 93.848分钟
每日圈数: 15.34395
详细信息
固有亮度:
5
最大亮度:
2.5
卫星平台:
Starlink V1.0
覆盖范围:
全球
运营商:
太空探索技术公司
运营商所在国:
美国
制造商(研发单位):
太空探索技术公司
制造商所在国:
美国
使用方式:
暂无
卫星简介
Starlink 计划是 SpaceX 推出的全球卫星互联网项目,通过发射低轨道卫星,为全球尤其是偏远地区提供高速、低延迟的互联网服务。自 2019 年起,Starlink 已部署数千颗卫星,旨在缩小全球数字鸿沟,推动互联网普及。该项目还为军事、航空等行业提供通信支持,带来广泛经济效益。
2D轨道图
3D轨道图
轨道高度分析图
轨道倾角分析图
轨道综合分析图
查看轨道综合分析图
交会数据列表
事件ID 空间交会对象 最接近时刻(TCA) 交会距离 交会风险概率(CRP) 交会风险指数(CRI) 操作
CDM_260905-065605-888206-613221
2026-09-05T
06:56:42+0000
1.937 km
极远距离
2.059249E-6 低风险 0.41
CDM_260827-205306-473506-613221
2026-08-27T
20:53:04+0000
2.359 km
极远距离
1.694428E-6 低风险 0.4
CDM_260903-232305-326506-613221
2026-09-03T
23:23:07+0000
2.829 km
极远距离
1.292387E-6 低风险 0.37
CDM_260829-084505-270606-613221
2026-08-29T
08:45:35+0000
2.988 km
极远距离
1.093378E-6 低风险 0.36
CDM_260905-122905-189106-613221
2026-09-05T
12:29:46+0000
2.066 km
极远距离
9.375584E-7 极低风险 0.34
CDM_260906-015301-815206-613221
2026-09-06T
01:53:25+0000
2.996 km
极远距离
9.034236E-7 极低风险 0.34
CDM_260904-113505-212206-613221
2026-09-04T
11:35:54+0000
2.882 km
极远距离
8.412612E-7 极低风险 0.33